Location: Austin
(30.3000°N, 97.7500°W)
Time: 07:22:02
(UTC-06:00)

Fermi - Pass Details

Date: 21 November 2025
Orbit: 492 x 503 km, 25.6° (Epoch: 07 December)

Event Time Altitude Azimuth Distance (km) Brightness Sun altitude
Rises 19:07:21 0° 257° (WSW) 2,561 8.8 -20.5°
Reaches altitude 10° 19:10:38 10° 228° (SW) 1,680 7.1 -21.2°
Maximum altitude 19:12:23 13° 201° (SSW) 1,519 6.4 -21.6°
Drops below altitude 10° 19:14:08 10° 174° (S) 1,682 6.3 -21.9°
Enters shadow 19:14:46 - 166° (SSE) 1,809 6.4 -22.1°
